Location: Ingoldesthorpe
(52.8667°N, 0.5167°E)
Time: 22:50:44
(UTC+00:00)

Sich 1 - Pass Details

Date: 19 May 2025
Orbit: 574 x 603 km, 82.5° (Epoch: 12 June)

Event Time Altitude Azimuth Distance (km) Brightness Sun altitude
Rises 22:30:00 0° 353° (N) 2,841 8.1 -14.9°
Reaches altitude 10° 22:32:19 10° 0° (N) 1,930 6.7 -15.0°
Maximum altitude 22:36:23 42° 73° (ENE) 842 3.7 -15.2°
Enters shadow 22:38:33 23° 131° (SE) 1,248 4.1 -15.3°
